SMOS

Last updated on Mon Oct 14 2024 00:02:24 GMT+0000 (Coordinated Universal Time)

1 36036U 09059A 24287.55317465 .00001466 00000+0 48146-3 0 9992 2 36036 98.4425 112.7865 0001271 80.5940 279.5392 14.39787016785440
UTC large
Height (km)
Speed (km/s)
/
Latitude / Longitude
Inclination (degrees)
Orbital Period (minutes)
Azimuth
Elevation
Range (km)
Doppler Factor

Next 0 passes for location: London (51.5072 / 0.1276)

Sorry there are no passes over London.